[[{"header":{"parameterUnit":"m.s-1","parameterCategory":2,"la1":30.2991,"la2":30.254,"lo1":-89.0895,"lo2":-89.0444,"dy":0.0017,"dx":0.0017,"nx":28,"ny":28,"refTime":"2023-08-02T21:00:00:Z","depth":"0","parameterNumber":2,"parameterNumberName":"U-component_of_CURRENTS"},"data":[0,0,0,0,0,0,0,0,0,0,0,0,0,0,0,0,0,0,0,0,0,0,0,0,0,0,0,0,0,0,0,0,0,0,0,0,0,0,0,0,0,0,0,0,0,0,0,0,0,0,0,0,0,0,0,0,0,0,0.0079,0.008,0,0.0168,0.0169,0.0169,0.0192,0.0192,0.0192,0.0192,0.0264,0.0266,0.0267,0,0,0,0,0,0,0,0,0,0,0,0,0,0.0053,0.0052,0.0078,0.008,0.0082,0.0168,0.0169,0.0169,0.0192,0.0192,0.0192,0.0192,0.0263,0.0265,0.0268,0,0,0,0,0,0,0,0,0,0,0,0,0,0.0089,0.0052,0.0078,0.0108,0.0113,0.0168,0.0169,0.0169,0.0192,0.0192,0.0192,0.0192,0.0262,0.0265,0.0268,0.0284,0,0,0.0277,0.0278,0,0,0,0,0,0,0,0,0.0087,0.0089,0.0102,0.0107,0.0111,0.0175,0.0187,0.0209,0.0192,0.0155,0.0192,0.0192,0.0237,0.0242,0.0249,0.0287,0.029,0.0277,0.0278,0.028,0.028,0,0,0,0,0,0,0,0.0084,0.0086,0.0107,0.0104,0.011,0.0162,0.0165,0.0191,0.0189,0.0158,0.0162,0.0182,0.0238,0.0246,0.0251,0.0291,0.0277,0.0279,0.0281,0.0282,0.0241,0.0239,0,0,0,0,0,0,0.0079,0.0083,0.0105,0.0111,0.0107,0.0162,0.0165,0.0149,0.0189,0.0197,0.0182,0.0183,0.0242,0.0248,0.0254,0.0283,0.028,0.0282,0.0284,0.0244,0.0241,0.0238,0,0,0,0,0,0,0.0078,0.0079,0.0101,0.0107,0.0114,0.0162,0.0144,0.0151,0.0143,0.0209,0.0215,0.0166,0.0242,0.025,0.0239,0.0286,0.0284,0.0286,0.0247,0.0243,0.0239,0.0337,0,0,0,0,0,0,0.0076,0.0077,0.0062,0.0105,0.0114,0.0113,0.0145,0.0153,0.016,0.0162,0.0198,0.0206,0.0243,0.0234,0.0241,0.029,0.0288,0.0251,0.0245,0.024,0.0338,0.0337,0.0337,0,0,0,0,0,0.0074,0.0047,0.0059,0.0063,0.009,0.0113,0.012,0.0153,0.0159,0.0146,0.0156,0.0204,0.0206,0.0234,0.0244,0.0294,0.0253,0.0247,0.0241,0.0338,0.0337,0.0337,0,0,0,0,0,0,0.0033,0.0049,0.0063,0.0043,0.0071,0.0119,0.0125,0.0137,0.0136,0.0143,0.0178,0.0185,0.0184,0.0192,0.0222,0.0248,0.0234,0.0229,0.0304,0.0304,0.0303,0.0283,0.0291,0,0,0,0,0,0.0018,0.0014,0.0032,0.0035,0.0032,0.0072,0.0086,0.011,0.0125,0.0125,0.0149,0.016,0.0168,0.0196,0.0188,0.0225,0.0204,0.0247,0.0247,0.0247,0.0225,0.0238,0.024,0.0217,0.0217,0.0217,0,0,0.0022,0.0028,0.0034,0.0029,0.0055,0.0063,0.0077,0.0099,0.0126,0.0135,0.0156,0.0149,0.0158,0.0186,0.0191,0.0212,0.0235,0.0239,0.0242,0.0218,0.0232,0.0236,0.0238,0.0213,0.0214,0.0214,0,0,0.0042,0.001,0.0016,0.0012,0.0041,0.0062,0.0055,0.0082,0.0101,0.0113,0.0123,0.0124,0.0145,0.018,0.0197,0.0175,0.0205,0.0175,0.0215,0.023,0.0234,0.0237,0.0206,0.0206,0.0214,0.0214,0.0214,0,0.0048,0.0035,0.0027,0.002,0.0026,0.005,0.0054,0.0082,0.0111,0.0123,0.0117,0.0122,0.0145,0.0194,0.0192,0.0189,0.0175,0.0246,0.0239,0.0242,0.0244,0.0211,0.0209,0.0218,0.0218,0.0217,0.0217,0,0.006,0.0047,0.0044,0.0044,0.0047,0.0049,0.0077,0.009,0.0107,0.0135,0.0145,0.016,0.0165,0.0188,0.0198,0.0232,0.0207,0.0222,0.0268,0.0254,0.0217,0.0214,0.0224,0.0222,0.0221,0.022,0,0,0.0061,0.0057,0.0048,0.0055,0.0044,0.0057,0.0087,0.0114,0.0138,0.0159,0.0178,0.0206,0.0201,0.0209,0.0237,0.0271,0.0287,0.0265,0.0264,0.0277,0.0287,0.0209,0.0198,0.0326,0.0326,0.0326,0.0255,0,0.007,0.0073,0.0058,0.0072,0.0069,0.0071,0.0098,0.0133,0.0154,0.0174,0.0204,0.0212,0.0223,0.0233,0.0268,0.0268,0.0283,0.0301,0.0255,0.0251,0.0225,0.0194,0.0191,0.0122,0.0252,0.0252,0.0251,0,0.006,0.0066,0.0077,0.0087,0.0081,0.0092,0.0115,0.0141,0.0176,0.0186,0.0203,0.0208,0.0245,0.0247,0.0264,0.0279,0.0269,0.0273,0.0272,0.0158,0.0169,0.015,0.0112,0.0123,0.0247,0.0247,0.0247,0,0.0063,0.0064,0.0083,0.0075,0.0096,0.0105,0.011,0.0142,0.0158,0.0183,0.0179,0.0217,0.0218,0.0234,0.0228,0.0253,0.022,0.0264,0.0175,0.0168,0.0127,0.0117,0.013,0.0249,0.0249,0.0249,0.025,0,0.0053,0.006,0.0088,0.0084,0.0103,0.0111,0.0123,0.0136,0.0149,0.0153,0.0179,0.0178,0.0214,0.0205,0.0212,0.0163,0.0206,0.0146,0.0145,0.0153,0.0146,0.0121,0.0105,0.0247,0.0247,0.0248,0.0248,0,0.0063,0.0074,0.0084,0.01,0.0105,0.0114,0.0104,0.0118,0.0125,0.0124,0.0125,0.014,0.012,0.0128,0.0131,0.0118,0.0084,0.0067,0.0041,0.0037,-0.0034,-0.0046,-0.0111,-0.0089,-0.0038,-0.004,-0.0042,0,0.008,0.0088,0.0087,0.0085,0.0088,0.0096,0.0102,0.0106,0.0105,0.0097,0.0093,0.0069,0.0047,-0.0004,-0.0027,-0.0065,-0.002,-0.0099,-0.0052,-0.0069,-0.0082,-0.0061,-0.0033,-0.007,-0.0072,-0.0074,-0.0075,0,0.0094,0.0083,0.0085,0.008,0.008,0.0086,0.008,0.0078,0.0079,0.0067,0.0038,0.0016,-0.0057,-0.0107,-0.0179,-0.0181,-0.0101,-0.0138,-0.0118,-0.0103,-0.0116,-0.0083,-0.0021,-0.009,-0.0088,-0.0087,-0.0086,-0.0086,0.0088,0.0091,0.0077,0.0072,0.007,0.0074,0.007,0.0056,0.0043,0.0003,-0.0019,-0.0082,-0.0155,-0.0257,-0.0259,-0.0278,-0.0253,-0.025,-0.0266,-0.0243,-0.022,-0.0236,-0.0326,-0.0326,-0.0326,-0.0326,-0.0326,0,0.0074,0.0077,0.007,0.0062,0.0056,0.0061,0.0061,0.0049,0.0018,-0.0044,-0.0101,-0.0212,-0.0289,-0.0317,-0.0384,-0.039,-0.031,-0.0364,-0.0291,-0.0252,-0.0229,-0.0226,-0.0344,-0.0344,-0.0344,-0.0344,-0.0344,-0.0344,0.0071,0.0059,0.0063,0.0055,0.0052,0.006,0.0061,0.0024,-0.0022,-0.0121,-0.0201,-0.0259,-0.0331,-0.0482,-0.0488,-0.0442,-0.037,-0.0401,-0.0363,-0.0309,-0.0296,-0.0284,-0.028,-0.0406,-0.0406,-0.032,-0.032,-0.0319]},{"header":{"parameterUnit":"m.s-1","parameterCategory":2,"la1":30.2991,"la2":30.254,"lo1":-89.0895,"lo2":-89.0444,"dy":0.0017,"dx":0.0017,"nx":28,"ny":28,"refTime":"2023-08-02T21:00:00:Z","depth":"0","parameterNumber":3,"parameterNumberName":"V-component_of_CURRENTS"},"data":[0,0,0,0,0,0,0,0,0,0,0,0,0,0,0,0,0,0,0,0,0,0,0,0,0,0,0,0,0,0,0,0,0,0,0,0,0,0,0,0,0,0,0,0,0,0,0,0,0,0,0,0,0,0,0,0,0,0,-0.03,-0.03,0,-0.0268,-0.0268,-0.0267,-0.0271,-0.0271,-0.0272,-0.0273,-0.0327,-0.0328,-0.0328,0,0,0,0,0,0,0,0,0,0,0,0,0,-0.0283,-0.0283,-0.03,-0.03,-0.03,-0.0268,-0.0268,-0.0267,-0.027,-0.0271,-0.0272,-0.0273,-0.0327,-0.0328,-0.0329,0,0,0,0,0,0,0,0,0,0,0,0,0,-0.0273,-0.0284,-0.03,-0.0299,-0.0299,-0.0269,-0.0268,-0.0267,-0.027,-0.0271,-0.0272,-0.0273,-0.0326,-0.0328,-0.0329,-0.0314,0,0,-0.0332,-0.0333,0,0,0,0,0,0,0,0,-0.0273,-0.0273,-0.03,-0.0299,-0.0299,-0.0277,-0.0282,-0.0288,-0.027,-0.0279,-0.0273,-0.0274,-0.0319,-0.0321,-0.0308,-0.0317,-0.0319,-0.0332,-0.0333,-0.0334,-0.0334,0,0,0,0,0,0,0,-0.0274,-0.0274,-0.0285,-0.0299,-0.0299,-0.0273,-0.0273,-0.0282,-0.0293,-0.0278,-0.0279,-0.0279,-0.0319,-0.0306,-0.0309,-0.032,-0.0332,-0.0333,-0.0334,-0.0335,-0.0324,-0.0323,0,0,0,0,0,0,-0.0286,-0.0275,-0.0286,-0.0284,-0.0291,-0.0273,-0.0273,-0.0281,-0.0291,-0.0294,-0.0278,-0.0279,-0.0304,-0.0308,-0.0311,-0.0318,-0.0334,-0.0335,-0.0335,-0.0325,-0.0324,-0.0323,0,0,0,0,0,0,-0.0286,-0.0287,-0.0288,-0.028,-0.0279,-0.0273,-0.0281,-0.028,-0.0264,-0.029,-0.0294,-0.0264,-0.0305,-0.031,-0.0283,-0.032,-0.0335,-0.0336,-0.0326,-0.0325,-0.0324,-0.0318,0,0,0,0,0,0,-0.0285,-0.0288,-0.0279,-0.0281,-0.028,-0.0281,-0.028,-0.0278,-0.0264,-0.0265,-0.028,-0.0286,-0.0306,-0.028,-0.0284,-0.0322,-0.0337,-0.0328,-0.0326,-0.0324,-0.0319,-0.0316,-0.0314,0,0,0,0,0,-0.0285,-0.0263,-0.028,-0.028,-0.0275,-0.0282,-0.0278,-0.0275,-0.0262,-0.0262,-0.0236,-0.0285,-0.0274,-0.0278,-0.0283,-0.0323,-0.0329,-0.0326,-0.0324,-0.032,-0.0317,-0.0314,0,0,0,0,0,0,-0.0276,-0.0261,-0.028,-0.0264,-0.0284,-0.0284,-0.0265,-0.0266,-0.0242,-0.024,-0.0249,-0.0252,-0.0241,-0.0267,-0.0272,-0.0311,-0.032,-0.0318,-0.0315,-0.0312,-0.0309,-0.0296,-0.0338,0,0,0,0,0,-0.0267,-0.0237,-0.0257,-0.0253,-0.0253,-0.0258,-0.0251,-0.0266,-0.0253,-0.0244,-0.0257,-0.0257,-0.0235,-0.0258,-0.0248,-0.0269,-0.0263,-0.0302,-0.0299,-0.0297,-0.0286,-0.0265,-0.026,-0.0316,-0.0316,-0.0316,0,0,-0.0279,-0.0255,-0.0252,-0.0247,-0.0251,-0.0259,-0.0256,-0.0259,-0.0267,-0.0254,-0.0253,-0.0233,-0.0223,-0.023,-0.0236,-0.0266,-0.028,-0.0294,-0.0292,-0.0283,-0.0263,-0.0257,-0.0253,-0.0314,-0.0315,-0.0315,0,0,-0.0277,-0.0255,-0.0237,-0.0238,-0.0242,-0.0248,-0.0249,-0.0265,-0.0266,-0.0261,-0.0236,-0.0214,-0.0232,-0.0223,-0.0216,-0.019,-0.0237,-0.0223,-0.024,-0.022,-0.0215,-0.0211,-0.021,-0.0206,-0.0258,-0.0258,-0.0258,0,-0.0281,-0.0267,-0.0242,-0.0227,-0.0228,-0.0243,-0.0256,-0.0253,-0.0265,-0.0253,-0.0269,-0.0219,-0.0222,-0.0187,-0.0186,-0.0189,-0.0191,-0.0258,-0.0218,-0.0213,-0.0209,-0.0208,-0.0204,-0.0258,-0.0258,-0.0258,-0.0258,0,-0.0299,-0.0267,-0.0252,-0.0237,-0.0243,-0.0247,-0.0262,-0.0263,-0.0267,-0.027,-0.0238,-0.0218,-0.0191,-0.0209,-0.0191,-0.0174,-0.0188,-0.0189,-0.023,-0.0203,-0.0204,-0.02,-0.0257,-0.0257,-0.0257,-0.0257,0,0,-0.0316,-0.0273,-0.0256,-0.0248,-0.0243,-0.0252,-0.025,-0.0249,-0.0228,-0.025,-0.0223,-0.019,-0.0178,-0.0164,-0.0159,-0.0168,-0.0145,-0.0184,-0.0184,-0.019,-0.0121,-0.0084,-0.0076,-0.0151,-0.0149,-0.0149,-0.0139,0,-0.0327,-0.0301,-0.0279,-0.0268,-0.026,-0.0253,-0.0249,-0.0251,-0.0241,-0.0221,-0.0198,-0.0162,-0.0164,-0.0151,-0.015,-0.013,-0.0131,-0.0149,-0.0139,-0.0138,-0.0114,-0.0068,-0.0034,-0.0017,-0.0134,-0.0133,-0.0133,0,-0.0335,-0.0303,-0.0306,-0.0259,-0.0258,-0.0259,-0.0235,-0.024,-0.0202,-0.0192,-0.0156,-0.013,-0.0104,-0.0118,-0.0089,-0.0106,-0.0103,-0.0108,-0.0108,-0.0068,-0.0091,-0.0058,-0.0005,0.0058,-0.0126,-0.0126,-0.0127,0,-0.0351,-0.0299,-0.0299,-0.0292,-0.0271,-0.0256,-0.0247,-0.0223,-0.0212,-0.0162,-0.0142,-0.0102,-0.0082,-0.007,-0.0062,-0.0077,-0.0047,-0.0066,-0.0028,-0.0028,0.001,0.0014,0.0126,-0.0032,-0.0032,-0.0032,-0.0032,0,-0.034,-0.0321,-0.0295,-0.0291,-0.0275,-0.0264,-0.0239,-0.0218,-0.0185,-0.0162,-0.0121,-0.0088,-0.007,-0.0047,-0.005,-0.0018,-0.0027,-0.0007,-0.0009,0.0013,0.0016,0.0079,0.0103,-0.0032,-0.0032,-0.0032,-0.0032,0,-0.0348,-0.0336,-0.0323,-0.0294,-0.0283,-0.0274,-0.0236,-0.0211,-0.0181,-0.0147,-0.0129,-0.0077,-0.0044,-0.0028,-0.001,0.0008,0.0092,0.0039,0.0057,0.0059,0.0162,0.0184,0.0327,0.0424,0.0087,0.0088,0.0089,0,-0.036,-0.0356,-0.0337,-0.0324,-0.0302,-0.0276,-0.0257,-0.0219,-0.0191,-0.0138,-0.012,-0.0067,-0.002,0.0028,0.0064,0.009,0.0143,0.0145,0.0143,0.0198,0.0221,0.0258,0.0332,0.018,0.0182,0.0183,0.0184,0,-0.0374,-0.0373,-0.0364,-0.034,-0.0312,-0.0284,-0.0243,-0.0223,-0.0182,-0.0144,-0.0091,-0.0048,0.0025,0.0099,0.0153,0.0163,0.0248,0.0175,0.0235,0.0323,0.037,0.045,0.0123,0.0196,0.0195,0.0194,0.0193,0.0193,-0.0389,-0.0387,-0.0376,-0.0345,-0.0319,-0.0287,-0.0249,-0.0209,-0.0172,-0.0111,-0.0083,-0.0002,0.0121,0.0212,0.0242,0.0348,0.0352,0.0375,0.0398,0.0432,0.0544,0.0246,0.032,0.0319,0.0319,0.0318,0.0318,0,-0.0396,-0.0389,-0.0375,-0.0336,-0.03,-0.0287,-0.0238,-0.0192,-0.0137,-0.0096,-0.0042,0.0116,0.0249,0.0355,0.0506,0.0571,0.0614,0.0595,0.065,0.0718,0.0447,0.047,0.0578,0.0578,0.0578,0.0578,0.0578,0.0578,-0.04,-0.0395,-0.0385,-0.0327,-0.0292,-0.023,-0.0196,-0.0142,-0.0091,0.0012,0.0105,0.0168,0.0341,0.0615,0.077,0.0771,0.0888,0.086,0.0943,0.0719,0.07,0.0681,0.071,0.0867,0.0867,0.1239,0.1242,0.1244]}],[{"header":{"parameterUnit":"m.s-1","parameterCategory":2,"la1":30.2991,"la2":30.254,"lo1":-89.0895,"lo2":-89.0444,"dy":0.0017,"dx":0.0017,"nx":28,"ny":28,"refTime":"2023-08-02T21:00:00:Z","depth":"2","parameterNumber":2,"parameterNumberName":"U-component_of_CURRENTS"},"data":[0,0,0,0,0,0,0,0,0,0,0,0,0,0,0,0,0,0,0,0,0,0,0,0,0,0,0,0,0,0,0,0,0,0,0,0,0,0,0,0,0,0,0,0,0,0,0,0,0,0,0,0,0,0,0,0,0,0,-0.0574,-0.0573,0,-0.0568,-0.0569,-0.057,-0.0553,-0.0552,-0.055,-0.0548,-0.0542,-0.0544,-0.0545,0,0,0,0,0,0,0,0,0,0,0,0,0,-0.0556,-0.0558,-0.0575,-0.0573,-0.0571,-0.0568,-0.0569,-0.057,-0.0554,-0.0551,-0.0549,-0.0547,-0.0542,-0.0544,-0.0545,0,0,0,0,0,0,0,0,0,0,0,0,0,-0.0573,-0.0559,-0.0575,-0.0551,-0.0548,-0.0567,-0.0569,-0.0571,-0.0554,-0.0551,-0.0549,-0.0546,-0.0541,-0.0543,-0.0546,-0.0613,0,0,-0.0553,-0.0554,0,0,0,0,0,0,0,0,-0.0573,-0.0576,-0.0556,-0.0553,-0.0549,-0.0545,-0.0559,-0.058,-0.0555,-0.0568,-0.0548,-0.0545,-0.0535,-0.0538,-0.0565,-0.0613,-0.0613,-0.0553,-0.0554,-0.0555,-0.0556,0,0,0,0,0,0,0,-0.0571,-0.0576,-0.0588,-0.0554,-0.055,-0.0534,-0.0536,-0.0565,-0.0579,-0.0567,-0.0562,-0.0537,-0.0535,-0.0563,-0.0564,-0.0613,-0.0553,-0.0555,-0.0556,-0.0557,-0.0507,-0.0505,0,0,0,0,0,0,-0.0545,-0.0576,-0.0587,-0.0586,-0.0537,-0.0535,-0.0538,-0.0562,-0.0578,-0.0574,-0.0539,-0.0536,-0.056,-0.0561,-0.0564,-0.0557,-0.0555,-0.0557,-0.0559,-0.051,-0.0507,-0.0504,0,0,0,0,0,0,-0.0546,-0.0549,-0.0588,-0.0565,-0.0566,-0.0537,-0.0565,-0.0563,-0.0556,-0.0554,-0.0553,-0.0528,-0.0558,-0.056,-0.0558,-0.056,-0.0558,-0.056,-0.0513,-0.0509,-0.0505,-0.06,0,0,0,0,0,0,-0.0547,-0.0551,-0.0568,-0.0565,-0.0566,-0.0604,-0.0566,-0.0564,-0.0539,-0.0535,-0.0545,-0.0544,-0.0556,-0.0554,-0.056,-0.0563,-0.0562,-0.0516,-0.0511,-0.0506,-0.06,-0.06,-0.0599,0,0,0,0,0,-0.0547,-0.0581,-0.0571,-0.057,-0.0591,-0.0604,-0.0607,-0.0585,-0.054,-0.0565,-0.054,-0.0542,-0.0523,-0.0556,-0.0563,-0.0566,-0.0519,-0.0513,-0.0507,-0.06,-0.06,-0.0599,0,0,0,0,0,0,-0.0592,-0.058,-0.057,-0.0601,-0.0599,-0.0595,-0.059,-0.0573,-0.0579,-0.0553,-0.0549,-0.0549,-0.0531,-0.0522,-0.0557,-0.0519,-0.0505,-0.0501,-0.0574,-0.0573,-0.0573,-0.0467,-0.0564,0,0,0,0,0,-0.0606,-0.0606,-0.0611,-0.0621,-0.0621,-0.0602,-0.0598,-0.0587,-0.0576,-0.0574,-0.0564,-0.0532,-0.052,-0.0525,-0.051,-0.0531,-0.0493,-0.0512,-0.0512,-0.0513,-0.042,-0.0382,-0.0372,-0.0484,-0.0484,-0.0484,0,0,-0.0603,-0.0601,-0.0594,-0.0624,-0.061,-0.0618,-0.0597,-0.0587,-0.0574,-0.0574,-0.0547,-0.0537,-0.0515,-0.052,-0.0509,-0.0516,-0.0479,-0.0505,-0.0507,-0.0411,-0.0375,-0.0365,-0.0355,-0.048,-0.0481,-0.0481,0,0,-0.06,-0.0618,-0.062,-0.0629,-0.0613,-0.0612,-0.0601,-0.0594,-0.0578,-0.0574,-0.0539,-0.0497,-0.0518,-0.0481,-0.0471,-0.0444,-0.0467,-0.0463,-0.0408,-0.0377,-0.0368,-0.0359,-0.0399,-0.0393,-0.048,-0.048,-0.048,0,-0.0591,-0.0613,-0.0621,-0.0635,-0.0605,-0.0601,-0.0589,-0.0603,-0.0586,-0.0541,-0.0557,-0.047,-0.0472,-0.0422,-0.0411,-0.0443,-0.0461,-0.0445,-0.0382,-0.0372,-0.0361,-0.0402,-0.0394,-0.0484,-0.0483,-0.0483,-0.0483,0,-0.0585,-0.0612,-0.0608,-0.0611,-0.0603,-0.0591,-0.0588,-0.0574,-0.0537,-0.0517,-0.0443,-0.0442,-0.0368,-0.0392,-0.0406,-0.0329,-0.0386,-0.0392,-0.0404,-0.0357,-0.0403,-0.0394,-0.0489,-0.0488,-0.0487,-0.0486,0,0,-0.0534,-0.0588,-0.059,-0.0578,-0.0578,-0.0564,-0.0538,-0.0495,-0.0454,-0.043,-0.0349,-0.0312,-0.0277,-0.0249,-0.027,-0.0243,-0.0246,-0.0294,-0.0291,-0.0365,-0.0248,-0.0343,-0.0342,-0.0286,-0.0282,-0.0279,-0.0352,0,-0.051,-0.0543,-0.0555,-0.0534,-0.0535,-0.0505,-0.0477,-0.0433,-0.0417,-0.0366,-0.0297,-0.0256,-0.0247,-0.0244,-0.0198,-0.0227,-0.0205,-0.0227,-0.0244,-0.0243,-0.036,-0.0325,-0.0337,-0.0404,-0.0342,-0.034,-0.0339,0,-0.0496,-0.0514,-0.0507,-0.0482,-0.0469,-0.0441,-0.0352,-0.0338,-0.028,-0.0266,-0.0186,-0.0173,-0.0096,-0.0115,-0.0072,-0.0112,-0.0134,-0.0159,-0.0165,-0.0174,-0.0313,-0.0411,-0.0387,-0.0321,-0.0323,-0.0324,-0.0325,0,-0.044,-0.0471,-0.0447,-0.0441,-0.0424,-0.0359,-0.0321,-0.0273,-0.0255,-0.0201,-0.0197,-0.0103,-0.0088,-0.005,-0.0087,-0.0096,-0.0077,-0.0111,-0.0201,-0.0215,-0.0167,-0.018,-0.0017,-0.0017,-0.0017,-0.0017,-0.0017,0,-0.0411,-0.0386,-0.0421,-0.0396,-0.0343,-0.0314,-0.0251,-0.0222,-0.0182,-0.0164,-0.0133,-0.0125,-0.0068,-0.0072,-0.0076,-0.0123,-0.0069,-0.0139,-0.0203,-0.0213,-0.0229,-0.0075,-0.0081,-0.002,-0.0019,-0.0019,-0.0018,0,-0.0357,-0.0387,-0.0354,-0.0327,-0.0323,-0.0268,-0.0234,-0.021,-0.0187,-0.0172,-0.0153,-0.0138,-0.0163,-0.015,-0.014,-0.015,-0.0169,-0.0193,-0.0246,-0.0311,-0.0337,-0.0346,-0.029,-0.0293,-0.0296,-0.0298,-0.03,0,-0.0334,-0.0326,-0.0315,-0.0312,-0.029,-0.025,-0.0235,-0.0205,-0.0205,-0.0197,-0.0185,-0.02,-0.0231,-0.0279,-0.0298,-0.0337,-0.0262,-0.0359,-0.0313,-0.0278,-0.0347,-0.0352,-0.0357,-0.034,-0.0342,-0.0344,-0.0345,0,-0.0278,-0.0269,-0.026,-0.0281,-0.026,-0.0262,-0.0236,-0.024,-0.0218,-0.0233,-0.0253,-0.0273,-0.0342,-0.0393,-0.0451,-0.0453,-0.0352,-0.0398,-0.031,-0.0276,-0.0332,-0.0399,-0.04,-0.036,-0.0359,-0.0358,-0.0357,-0.0356,-0.0236,-0.0228,-0.0245,-0.0252,-0.0253,-0.0255,-0.0246,-0.0257,-0.0266,-0.0289,-0.0316,-0.0381,-0.0425,-0.0541,-0.0526,-0.0505,-0.0519,-0.0478,-0.0469,-0.0459,-0.0458,-0.0515,-0.0582,-0.0582,-0.0582,-0.0582,-0.0582,0,-0.023,-0.0224,-0.0227,-0.0239,-0.0245,-0.0242,-0.0248,-0.0258,-0.0284,-0.0339,-0.039,-0.0473,-0.0549,-0.055,-0.0572,-0.0588,-0.0525,-0.0533,-0.0445,-0.0435,-0.0425,-0.0414,-0.0531,-0.053,-0.0529,-0.0528,0,0,-0.0223,-0.023,-0.0236,-0.0245,-0.0243,-0.0242,-0.0238,-0.0269,-0.0307,-0.0382,-0.045,-0.057,-0.0597,-0.0586,-0.0579,-0.0544,-0.0461,-0.0518,-0.0573,-0.0462,-0.0449,-0.043,-0.041,0,0,0,0,0]},{"header":{"parameterUnit":"m.s-1","parameterCategory":2,"la1":30.2991,"la2":30.254,"lo1":-89.0895,"lo2":-89.0444,"dy":0.0017,"dx":0.0017,"nx":28,"ny":28,"refTime":"2023-08-02T21:00:00:Z","depth":"2","parameterNumber":3,"parameterNumberName":"V-component_of_CURRENTS"},"data":[0,0,0,0,0,0,0,0,0,0,0,0,0,0,0,0,0,0,0,0,0,0,0,0,0,0,0,0,0,0,0,0,0,0,0,0,0,0,0,0,0,0,0,0,0,0,0,0,0,0,0,0,0,0,0,0,0,0,-0.01,-0.0099,0,-0.0074,-0.0073,-0.0073,-0.0098,-0.0099,-0.01,-0.0101,-0.0105,-0.0104,-0.0103,0,0,0,0,0,0,0,0,0,0,0,0,0,-0.0094,-0.0095,-0.01,-0.0099,-0.0099,-0.0074,-0.0073,-0.0073,-0.0098,-0.0099,-0.01,-0.0101,-0.0105,-0.0104,-0.0103,0,0,0,0,0,0,0,0,0,0,0,0,0,-0.0087,-0.0095,-0.01,-0.0107,-0.0108,-0.0074,-0.0073,-0.0073,-0.0098,-0.0099,-0.01,-0.0102,-0.0105,-0.0104,-0.0103,-0.007,0,0,-0.01,-0.0099,0,0,0,0,0,0,0,0,-0.0087,-0.0087,-0.0107,-0.0107,-0.0107,-0.0089,-0.0073,-0.0073,-0.0097,-0.0103,-0.0101,-0.0102,-0.01,-0.01,-0.0093,-0.0071,-0.0071,-0.01,-0.0099,-0.0099,-0.0098,0,0,0,0,0,0,0,-0.0088,-0.0088,-0.0091,-0.0106,-0.0106,-0.0085,-0.0087,-0.0073,-0.0096,-0.0102,-0.0104,-0.0098,-0.0101,-0.0094,-0.0094,-0.0071,-0.01,-0.0099,-0.0098,-0.0098,-0.0119,-0.012,0,0,0,0,0,0,-0.0091,-0.0089,-0.0092,-0.009,-0.0099,-0.0085,-0.0086,-0.0095,-0.0096,-0.0097,-0.0097,-0.01,-0.0096,-0.0095,-0.0094,-0.008,-0.0099,-0.0098,-0.0097,-0.0118,-0.0119,-0.0121,0,0,0,0,0,0,-0.0091,-0.0092,-0.0093,-0.0087,-0.0085,-0.0084,-0.0093,-0.0093,-0.0096,-0.0091,-0.0093,-0.01,-0.0097,-0.0096,-0.0072,-0.008,-0.0097,-0.0096,-0.0116,-0.0118,-0.012,-0.0036,0,0,0,0,0,0,-0.0092,-0.0093,-0.0085,-0.0088,-0.0086,-0.0075,-0.0092,-0.0092,-0.0089,-0.0092,-0.0094,-0.0095,-0.0098,-0.0073,-0.007,-0.0079,-0.0095,-0.0115,-0.0117,-0.0119,-0.0038,-0.0035,-0.0033,0,0,0,0,0,-0.0092,-0.0075,-0.0086,-0.0085,-0.0082,-0.0074,-0.0071,-0.0075,-0.0088,-0.0083,-0.0075,-0.0096,-0.0089,-0.007,-0.0068,-0.0076,-0.0114,-0.0117,-0.0119,-0.0039,-0.0036,-0.0033,0,0,0,0,0,0,-0.0089,-0.0076,-0.0088,-0.0075,-0.0078,-0.0078,-0.0068,-0.0074,-0.0064,-0.0079,-0.0072,-0.0071,-0.006,-0.0085,-0.0066,-0.01,-0.012,-0.0123,-0.0061,-0.0058,-0.0055,-0.0078,-0.0095,0,0,0,0,0,-0.008,-0.0067,-0.0063,-0.0066,-0.006,-0.0067,-0.006,-0.0076,-0.0071,-0.007,-0.0071,-0.0084,-0.0068,-0.0074,-0.0073,-0.0069,-0.0082,-0.0092,-0.0089,-0.0087,-0.0109,-0.0099,-0.0096,-0.0129,-0.0129,-0.0129,0,0,-0.0092,-0.0079,-0.0078,-0.0063,-0.0068,-0.0066,-0.0068,-0.0077,-0.0078,-0.0071,-0.007,-0.006,-0.0063,-0.0055,-0.0059,-0.0077,-0.0084,-0.009,-0.0087,-0.0112,-0.0101,-0.0098,-0.0094,-0.0131,-0.0131,-0.0131,0,0,-0.0101,-0.0091,-0.0078,-0.0071,-0.007,-0.0073,-0.0076,-0.0083,-0.0082,-0.0077,-0.0067,-0.0055,-0.0063,-0.005,-0.0045,-0.0036,-0.0059,-0.0062,-0.0071,-0.0059,-0.0055,-0.0052,-0.0046,-0.0043,-0.0074,-0.0074,-0.0074,0,-0.0103,-0.0096,-0.0077,-0.0065,-0.0066,-0.0077,-0.0084,-0.0072,-0.0077,-0.0069,-0.0086,-0.0075,-0.0063,-0.0029,-0.003,-0.0027,-0.0031,-0.0063,-0.005,-0.0048,-0.0046,-0.0041,-0.0039,-0.0071,-0.0071,-0.0071,-0.0072,0,-0.013,-0.0097,-0.0092,-0.0082,-0.0084,-0.0091,-0.0086,-0.0082,-0.0095,-0.0095,-0.0079,-0.0057,-0.0054,-0.0053,-0.0032,-0.0018,-0.0026,-0.0027,-0.0042,-0.0037,-0.0033,-0.0032,-0.0065,-0.0067,-0.0068,-0.0069,0,0,-0.016,-0.0114,-0.0099,-0.0093,-0.0094,-0.0103,-0.0094,-0.0082,-0.0065,-0.0086,-0.0073,-0.0045,-0.0045,-0.0042,-0.0016,-0.0018,0.002,-0.0024,-0.0025,0.0008,0.004,0.0076,0.0081,0.0031,0.0031,0.0031,0.0046,0,-0.0172,-0.0137,-0.0124,-0.0116,-0.0104,-0.0105,-0.0094,-0.0095,-0.0079,-0.0063,-0.0057,-0.0034,-0.0034,-0.0018,-0.0015,0.0019,0.0021,0.0014,0.0004,0.0003,0.0057,0.0083,0.0071,0.0087,0.0047,0.0047,0.0047,0,-0.0187,-0.0152,-0.0144,-0.0109,-0.0109,-0.012,-0.0107,-0.0102,-0.0068,-0.0056,-0.0044,-0.0026,-0.0004,-0.0016,0.0014,0.001,0.002,0.0026,0.0027,0.0024,0.004,0.0066,0.009,0.0049,0.0049,0.0049,0.0048,0,-0.0219,-0.0155,-0.0151,-0.0148,-0.0128,-0.0129,-0.0131,-0.0105,-0.0086,-0.0046,-0.003,-0.0008,0.0004,0.0011,0.0035,0.003,0.0047,0.005,0.0084,0.0086,0.0051,0.0051,0.0052,0.0052,0.0052,0.0052,0.0052,0,-0.0218,-0.0205,-0.0155,-0.0161,-0.0149,-0.0152,-0.0139,-0.0118,-0.009,-0.007,-0.0031,-0.0001,0.0009,0.0031,0.0037,0.0069,0.0057,0.008,0.0095,0.008,0.0082,0.0016,0.0012,0.0052,0.0052,0.0052,0.0052,0,-0.0248,-0.0216,-0.021,-0.018,-0.0167,-0.0175,-0.0151,-0.0125,-0.0096,-0.0065,-0.0055,0.0,0.0036,0.0051,0.007,0.0087,0.0106,0.0115,0.0096,0.0109,0.0132,0.0131,0.0159,0.016,0.0162,0.0163,0.0163,0,-0.0263,-0.0259,-0.0238,-0.0224,-0.0208,-0.0192,-0.0174,-0.0141,-0.011,-0.0057,-0.0046,0.0005,0.0054,0.0102,0.0137,0.0164,0.013,0.0166,0.0158,0.0133,0.0144,0.0141,0.0139,0.0144,0.0144,0.0145,0.0145,0,-0.0293,-0.0299,-0.0291,-0.0253,-0.023,-0.0197,-0.0167,-0.0143,-0.0106,-0.0065,-0.0015,0.0024,0.0095,0.0141,0.0189,0.0195,0.0165,0.018,0.0159,0.0127,0.0123,0.0132,0.013,0.015,0.0149,0.0149,0.0149,0.0149,-0.0325,-0.0324,-0.031,-0.0272,-0.0242,-0.0205,-0.0173,-0.0135,-0.0098,-0.0044,-0.0015,0.0052,0.0099,0.0188,0.0219,0.0243,0.0232,0.0212,0.0209,0.0205,0.021,0.0209,0.0252,0.0252,0.0252,0.0252,0.0252,0,-0.0337,-0.0331,-0.0316,-0.0271,-0.0233,-0.0215,-0.0161,-0.0122,-0.0072,-0.004,0.0005,0.0078,0.0139,0.0183,0.0246,0.0286,0.0268,0.0267,0.0223,0.0218,0.0214,0.0217,0.0262,0.0262,0.0263,0.0263,0,0,-0.0342,-0.0336,-0.0324,-0.0261,-0.0227,-0.0161,-0.0128,-0.0085,-0.0043,-0.0003,0.0036,0.0077,0.0149,0.0189,0.0219,0.0245,0.0222,0.0243,0.0228,0.0166,0.0162,0.0171,0.0171,0,0,0,0,0]}],[{"header":{"parameterUnit":"m.s-1","parameterCategory":2,"la1":30.2991,"la2":30.254,"lo1":-89.0895,"lo2":-89.0444,"dy":0.0017,"dx":0.0017,"nx":28,"ny":28,"refTime":"2023-08-02T21:00:00:Z","depth":"4","parameterNumber":2,"parameterNumberName":"U-component_of_CURRENTS"},"data":[0,0,0,0,0,0,0,0,0,0,0,0,0,0,0,0,0,0,0,0,0,0,0,0,0,0,0,0,0,0,0,0,0,0,0,0,0,0,0,0,0,0,0,0,0,0,0,0,0,0,0,0,0,0,0,0,0,0,-0.0995,-0.0996,0,-0.1099,-0.11,-0.1101,-0.1182,-0.1183,-0.1183,-0.1184,-0.1261,-0.1263,-0.1264,0,0,0,0,0,0,0,0,0,0,0,0,0,-0.0908,-0.0909,-0.0995,-0.0996,-0.0997,-0.1098,-0.11,-0.1101,-0.1182,-0.1183,-0.1184,-0.1184,-0.1261,-0.1263,-0.1264,0,0,0,0,0,0,0,0,0,0,0,0,0,-0.0972,-0.091,-0.0995,-0.105,-0.1055,-0.1098,-0.11,-0.1102,-0.1182,-0.1183,-0.1184,-0.1185,-0.126,-0.1262,-0.1264,-0.1254,0,0,-0.1271,-0.1272,0,0,0,0,0,0,0,0,-0.0969,-0.0976,-0.104,-0.1046,-0.1053,-0.1128,-0.1098,-0.1151,-0.1181,-0.1134,-0.1184,-0.1185,-0.1213,-0.1219,-0.1237,-0.1258,-0.1261,-0.1271,-0.1272,-0.1273,-0.1274,0,0,0,0,0,0,0,-0.0964,-0.0972,-0.1036,-0.1041,-0.1049,-0.1083,-0.1093,-0.1109,-0.1166,-0.1138,-0.1144,-0.1155,-0.1217,-0.1235,-0.1239,-0.1263,-0.1271,-0.1273,-0.1274,-0.1275,-0.1407,-0.1409,0,0,0,0,0,0,-0.0947,-0.0967,-0.1033,-0.1039,-0.1012,-0.1084,-0.1095,-0.1103,-0.1167,-0.1177,-0.1154,-0.1158,-0.1231,-0.1237,-0.1242,-0.1359,-0.1273,-0.1275,-0.1276,-0.1405,-0.1407,-0.141,0,0,0,0,0,0,-0.0945,-0.0952,-0.1029,-0.1006,-0.1018,-0.1083,-0.1092,-0.1104,-0.1152,-0.1179,-0.1189,-0.1192,-0.1232,-0.124,-0.1282,-0.1358,-0.1276,-0.1278,-0.1402,-0.1406,-0.1409,-0.1512,0,0,0,0,0,0,-0.0942,-0.095,-0.0979,-0.1004,-0.1019,-0.1084,-0.1092,-0.1106,-0.1154,-0.1162,-0.1213,-0.1221,-0.1234,-0.1278,-0.1284,-0.1359,-0.1279,-0.1399,-0.1404,-0.1408,-0.1506,-0.1519,-0.153,0,0,0,0,0,-0.0938,-0.0969,-0.0979,-0.0989,-0.1046,-0.1085,-0.1097,-0.1147,-0.1155,-0.119,-0.1215,-0.1221,-0.1311,-0.1281,-0.1287,-0.1365,-0.1397,-0.1402,-0.1407,-0.15,-0.1516,-0.1529,0,0,0,0,0,0,-0.0943,-0.0981,-0.0993,-0.1033,-0.1068,-0.11,-0.1134,-0.1158,-0.1205,-0.1217,-0.1232,-0.1241,-0.1291,-0.1312,-0.1279,-0.1415,-0.1362,-0.1369,-0.1431,-0.1446,-0.1458,-0.1507,-0.1281,0,0,0,0,0,-0.0953,-0.0997,-0.102,-0.1059,-0.1065,-0.1099,-0.1129,-0.1163,-0.1194,-0.1219,-0.1261,-0.1298,-0.1313,-0.1366,-0.1369,-0.1456,-0.1418,-0.1515,-0.1527,-0.1537,-0.1582,-0.1597,-0.1614,-0.1427,-0.1427,-0.1427,0,0,-0.0965,-0.0995,-0.1019,-0.1066,-0.1084,-0.1111,-0.1121,-0.1171,-0.1208,-0.1216,-0.1293,-0.1312,-0.1327,-0.1405,-0.1439,-0.1449,-0.155,-0.1544,-0.1552,-0.1592,-0.1604,-0.1622,-0.1638,-0.143,-0.143,-0.1429,0,0,-0.0997,-0.1024,-0.1062,-0.1089,-0.1135,-0.1151,-0.1166,-0.1219,-0.1257,-0.1322,-0.1325,-0.1413,-0.1453,-0.1517,-0.1535,-0.1622,-0.1569,-0.1625,-0.1786,-0.1799,-0.1815,-0.1828,-0.171,-0.1713,-0.1686,-0.1687,-0.1687,0,-0.1022,-0.1054,-0.1082,-0.1114,-0.1131,-0.1162,-0.1186,-0.1224,-0.1304,-0.1348,-0.1359,-0.1495,-0.1513,-0.1628,-0.168,-0.1656,-0.1604,-0.1726,-0.1815,-0.1829,-0.1841,-0.1717,-0.1719,-0.1692,-0.1692,-0.1691,-0.1691,0,-0.104,-0.1096,-0.1111,-0.1156,-0.1183,-0.1214,-0.1243,-0.1324,-0.1371,-0.1414,-0.1541,-0.1614,-0.1745,-0.1749,-0.1748,-0.188,-0.1782,-0.1778,-0.1778,-0.1866,-0.1728,-0.1728,-0.17,-0.1698,-0.1697,-0.1695,0,0,-0.1027,-0.1113,-0.1126,-0.1161,-0.1205,-0.123,-0.13,-0.137,-0.1445,-0.1566,-0.1685,-0.1793,-0.1909,-0.1945,-0.2,-0.2046,-0.206,-0.1991,-0.1989,-0.187,-0.1992,-0.184,-0.1823,-0.2074,-0.2077,-0.208,-0.1824,0,-0.1036,-0.1114,-0.1142,-0.121,-0.1236,-0.1296,-0.1354,-0.1436,-0.1518,-0.1651,-0.178,-0.1883,-0.1956,-0.2062,-0.2147,-0.2039,-0.2081,-0.2123,-0.193,-0.1922,-0.1778,-0.1829,-0.2089,-0.1824,-0.1824,-0.1824,-0.1824,0,-0.1024,-0.1089,-0.1155,-0.1258,-0.1268,-0.1329,-0.1451,-0.1556,-0.1718,-0.1789,-0.2002,-0.2035,-0.2185,-0.222,-0.2213,-0.2232,-0.2175,-0.2086,-0.2074,-0.1919,-0.1777,-0.1741,-0.1822,-0.1822,-0.1822,-0.1822,-0.1823,0,-0.0983,-0.1092,-0.115,-0.1176,-0.129,-0.137,-0.1493,-0.1634,-0.1698,-0.1956,-0.197,-0.2166,-0.222,-0.2246,-0.2147,-0.2173,-0.2033,-0.2027,-0.1832,-0.1812,-0.1975,-0.1964,-0.2059,-0.206,-0.206,-0.2061,-0.2062,0,-0.0956,-0.1019,-0.1166,-0.1202,-0.1298,-0.1428,-0.1544,-0.1724,-0.1891,-0.1911,-0.2126,-0.211,-0.2228,-0.2147,-0.2128,-0.1956,-0.2038,-0.1861,-0.1776,-0.2005,-0.2003,-0.1966,-0.1958,-0.2051,-0.2053,-0.2055,-0.2057,0,-0.0898,-0.0991,-0.1079,-0.1232,-0.1288,-0.1415,-0.1563,-0.1626,-0.184,-0.1891,-0.1949,-0.2013,-0.1906,-0.1929,-0.1847,-0.1837,-0.173,-0.1668,-0.1823,-0.1746,-0.1483,-0.1484,-0.1388,-0.1381,-0.1376,-0.1371,-0.1367,0,-0.0872,-0.0912,-0.1083,-0.1123,-0.1207,-0.1364,-0.1413,-0.1639,-0.1658,-0.1743,-0.1707,-0.166,-0.1665,-0.1428,-0.1519,-0.1462,-0.1492,-0.1427,-0.1588,-0.1507,-0.1433,-0.1443,-0.1452,-0.1358,-0.1357,-0.1355,-0.1354,0,-0.081,-0.0884,-0.0949,-0.1047,-0.1119,-0.1158,-0.1275,-0.1255,-0.1434,-0.1509,-0.1412,-0.1389,-0.1253,-0.1253,-0.1243,-0.1222,-0.1472,-0.1369,-0.1382,-0.1533,-0.147,-0.1404,-0.1419,-0.1335,-0.1337,-0.1339,-0.134,0,-0.0754,-0.0783,-0.0873,-0.0946,-0.1004,-0.101,-0.1069,-0.1038,-0.11,-0.1197,-0.1095,-0.1119,-0.1145,-0.1113,-0.1081,-0.1081,-0.1087,-0.1107,-0.1135,-0.1157,-0.1225,-0.112,-0.0812,0,0,0,0,0,-0.0693,-0.0711,-0.0753,-0.0841,-0.0873,-0.0922,-0.0957,-0.0991,-0.1053,-0.0936,-0.1053,-0.0937,-0.0918,-0.0932,-0.0889,-0.0992,-0.1111,-0.094,-0.1153,-0.1227,-0.125,-0.1367,0,0,0,0,0,0,-0.0655,-0.0695,-0.0726,-0.0728,-0.0743,-0.0778,-0.0804,-0.0842,-0.0791,-0.0851,-0.0832,-0.0879,-0.0867,-0.0922,-0.0867,-0.0876,-0.0992,-0.0964,-0.0961,-0.1215,-0.1235,-0.1253,-0.1381,0,0,0,0,0]},{"header":{"parameterUnit":"m.s-1","parameterCategory":2,"la1":30.2991,"la2":30.254,"lo1":-89.0895,"lo2":-89.0444,"dy":0.0017,"dx":0.0017,"nx":28,"ny":28,"refTime":"2023-08-02T21:00:00:Z","depth":"4","parameterNumber":3,"parameterNumberName":"V-component_of_CURRENTS"},"data":[0,0,0,0,0,0,0,0,0,0,0,0,0,0,0,0,0,0,0,0,0,0,0,0,0,0,0,0,0,0,0,0,0,0,0,0,0,0,0,0,0,0,0,0,0,0,0,0,0,0,0,0,0,0,0,0,0,0,0.0169,0.0169,0,0.0154,0.0154,0.0154,0.0182,0.0183,0.0185,0.0186,0.0205,0.0204,0.0204,0,0,0,0,0,0,0,0,0,0,0,0,0,0.0172,0.0172,0.0169,0.0169,0.0169,0.0154,0.0154,0.0154,0.0182,0.0184,0.0185,0.0186,0.0205,0.0204,0.0204,0,0,0,0,0,0,0,0,0,0,0,0,0,0.0163,0.0172,0.0169,0.0183,0.0184,0.0154,0.0154,0.0153,0.0182,0.0184,0.0185,0.0187,0.0205,0.0204,0.0204,0.0165,0,0,0.0201,0.0201,0,0,0,0,0,0,0,0,0.0164,0.0163,0.0181,0.0182,0.0183,0.0174,0.0162,0.016,0.0181,0.0181,0.0186,0.0188,0.0197,0.0197,0.0188,0.0166,0.0167,0.0201,0.0201,0.02,0.02,0,0,0,0,0,0,0,0.0164,0.0163,0.0161,0.0181,0.0182,0.0173,0.0174,0.0161,0.0179,0.0181,0.0183,0.0184,0.0198,0.0188,0.0189,0.0167,0.0201,0.02,0.02,0.02,0.015,0.0149,0,0,0,0,0,0,0.0171,0.0164,0.0162,0.0161,0.018,0.0172,0.0173,0.0173,0.0178,0.0181,0.0183,0.0186,0.0189,0.0189,0.0189,0.0161,0.02,0.02,0.0199,0.0151,0.015,0.0149,0,0,0,0,0,0,0.0171,0.017,0.0162,0.0164,0.0162,0.0171,0.0171,0.0172,0.0172,0.018,0.0183,0.0183,0.019,0.0191,0.0165,0.0162,0.0199,0.0198,0.0152,0.015,0.0149,0.0094,0,0,0,0,0,0,0.0171,0.0171,0.0171,0.0164,0.0163,0.0143,0.0169,0.0171,0.0171,0.0174,0.0181,0.0184,0.0192,0.0166,0.0164,0.0161,0.0198,0.0153,0.0151,0.015,0.0097,0.0091,0.0086,0,0,0,0,0,0.0171,0.0158,0.0172,0.0171,0.0164,0.0142,0.014,0.015,0.0169,0.0158,0.0155,0.0184,0.0156,0.0163,0.0161,0.0159,0.0154,0.0152,0.015,0.0099,0.0092,0.0086,0,0,0,0,0,0,0.0158,0.016,0.0174,0.0164,0.0157,0.0148,0.0137,0.0148,0.0135,0.0141,0.0155,0.0155,0.0128,0.0149,0.0156,0.0141,0.0167,0.0165,0.0129,0.0122,0.0117,0.0165,0.0197,0,0,0,0,0,0.0157,0.0149,0.0151,0.0141,0.0137,0.0138,0.0132,0.0139,0.0129,0.0127,0.013,0.0133,0.0115,0.0124,0.0106,0.0096,0.0162,0.01,0.0094,0.0089,0.0127,0.0262,0.0274,0.0143,0.0143,0.0143,0,0,0.0145,0.0149,0.0142,0.0138,0.0132,0.0107,0.0138,0.0124,0.0098,0.0129,0.0095,0.0098,0.0101,0.0078,0.0073,0.0102,0.0139,0.0087,0.0083,0.0124,0.0262,0.0275,0.0287,0.0141,0.0142,0.0142,0,0,0.0115,0.0124,0.0108,0.0096,0.0092,0.0085,0.0083,0.0075,0.007,0.0035,0.0048,0.0061,0.003,0.0049,0.0049,0.0008,0.0088,0.0002,0.0035,0.0164,0.0177,0.019,0.0201,0.0216,0.0023,0.0023,0.0023,0,0.0108,0.0086,0.0097,0.0075,0.0052,0.0073,0.0036,0.0025,0.001,0.0007,0.0018,0.0031,0.0021,0.0037,0.002,-0.0,0.0062,0.0055,0.0162,0.0177,0.0192,0.02,0.0217,0.002,0.002,0.0021,0.0021,0,0.0066,0.0044,0.0027,0.0005,-0.002,-0.0049,-0.0064,-0.0072,-0.007,-0.0067,-0.0052,-0.0029,0.0026,-0.0008,-0.0013,0.0077,0.0075,0.0122,0.0187,0.0202,0.0207,0.0226,0.0016,0.0017,0.0018,0.0019,0,0,0.0059,0.0009,0.0004,-0.0026,-0.0062,-0.0087,-0.0129,-0.0153,-0.0149,-0.0126,-0.0085,-0.0101,0.0002,0.0015,0.0052,0.0138,0.0233,0.0185,0.0193,0.0207,0.0459,0.031,0.0316,0.033,0.0335,0.034,0.0389,0,0.0023,-0.0032,-0.0056,-0.0131,-0.0171,-0.018,-0.0225,-0.0237,-0.0222,-0.0173,-0.0092,-0.0024,-0.0012,0.0075,0.0159,0.0228,0.0298,0.0211,0.0434,0.0438,0.0319,0.034,0.0356,0.0403,0.0408,0.0411,0.0413,0,-0.0015,-0.0048,-0.012,-0.0201,-0.0218,-0.0253,-0.0284,-0.03,-0.024,-0.0197,-0.006,0.0034,0.0183,0.0218,0.04,0.0361,0.0423,0.0455,0.046,0.0376,0.0329,0.0408,0.0449,0.0446,0.0444,0.0441,0.0439,0,-0.0025,-0.0104,-0.0164,-0.0191,-0.0264,-0.0289,-0.0302,-0.0297,-0.0283,-0.0112,-0.0031,0.0142,0.0295,0.0434,0.0521,0.0514,0.0683,0.0689,0.0587,0.0573,0.072,0.0707,0.0838,0.0838,0.0838,0.0838,0.0838,0,-0.0066,-0.0112,-0.0163,-0.0191,-0.0249,-0.0286,-0.0301,-0.0271,-0.0192,-0.0157,0.0037,0.0117,0.038,0.0496,0.0562,0.0618,0.0749,0.0602,0.0608,0.0674,0.0656,0.0727,0.0713,0.084,0.0839,0.0839,0.0839,0,-0.0073,-0.011,-0.0163,-0.0228,-0.0252,-0.0262,-0.0275,-0.0261,-0.0171,-0.0083,0.0018,0.0176,0.0301,0.0456,0.0637,0.0658,0.073,0.0712,0.0702,0.0704,0.0505,0.0488,0.0619,0.0615,0.0611,0.0608,0.0606,0,-0.0079,-0.0113,-0.016,-0.017,-0.0193,-0.0217,-0.0235,-0.0211,-0.0187,-0.011,-0.006,0.0096,0.0189,0.0338,0.0462,0.0595,0.0594,0.0656,0.064,0.0506,0.05,0.0487,0.0475,0.06,0.0599,0.0598,0.0597,0,-0.0087,-0.009,-0.0118,-0.0126,-0.0145,-0.0179,-0.0196,-0.0182,-0.0162,-0.0111,-0.0074,0.0021,0.0103,0.0237,0.0368,0.0439,0.0648,0.062,0.0627,0.0613,0.0485,0.0479,0.0471,0.0585,0.0587,0.0588,0.0589,0,-0.0064,-0.0065,-0.0074,-0.0087,-0.0099,-0.0111,-0.0142,-0.0157,-0.0143,-0.009,-0.0133,-0.0023,0.0041,0.0142,0.0219,0.0328,0.0326,0.0392,0.0412,0.0427,0.0346,0.0154,0.0175,0,0,0,0,0,-0.004,-0.0037,-0.004,-0.0045,-0.0048,-0.0065,-0.0111,-0.0144,-0.0179,-0.0148,-0.0128,-0.0078,0.0023,0.0049,0.013,0.0129,0.0347,0.0221,0.0436,0.0517,0.0532,0.0456,0,0,0,0,0,0,-0.0026,-0.0017,-0.0024,0.0002,0.0003,-0.0014,-0.0042,-0.0078,-0.0078,-0.0105,-0.005,-0.0067,0.0037,0.0002,0.0136,0.0152,0.0294,0.0255,0.0256,0.0509,0.0522,0.0534,0.0461,0,0,0,0,0]}]]